Total_Precipitation_Accumulation
2.63 2.80 3.39 3.25 2.69 2.57 2.68 2.67 2.74 2.65 2.67 2.76 2.74 2.62 2.49 2.43 2.30 2.31 2.28 2.24 2.23 2.32 2.47 2.52 2.46 2.41 2.37 2.26 2.23 2.35 2.38 2.27 2.54 2.62 2.68 2.65 2.60 2.65 2.74 2.79 2.86 2.01 1.78
2.14 2.18 2.70 2.74 2.50 2.56 2.55 2.62 2.69 2.54 2.50 2.57 2.63 2.54 2.41 2.29 2.30 2.27 2.21 2.21 2.25 2.35 2.52 2.50 2.28 2.17 2.03 1.91 1.95 2.18 2.31 2.37 2.64 2.83 2.98 2.97 2.95 2.94 2.98 2.97 2.94 1.92 1.80
1.72 1.72 1.99 2.28 2.19 2.30 2.33 2.28 2.31 2.23 2.24 2.32 2.42 2.48 2.49 2.39 2.35 2.27 2.16 2.21 2.26 2.26 2.37 2.29 2.07 1.95 1.80 1.67 1.73 2.09 2.33 2.59 3.05 3.24 3.56 3.13 2.68 3.08 3.04 2.95 2.62 1.88 1.78
1.42 1.53 1.64 2.05 2.08 1.95 1.87 1.93 2.10 2.04 2.02 2.09 2.26 2.48 2.61 2.63 2.50 2.40 2.30 2.28 2.23 2.22 2.38 2.19 1.95 1.72 1.58 1.55 1.68 1.95 2.28 2.65 3.11 3.59 3.85 2.96 2.19 2.53 2.56 2.44 2.33 1.95 1.76
1.17 1.36 1.65 1.84 1.85 1.73 1.66 1.75 1.93 1.85 1.88 1.96 2.03 2.26 2.43 2.59 2.70 2.64 2.42 2.26 2.15 2.20 2.25 2.10 1.85 1.59 1.41 1.42 1.61 1.83 2.08 2.59 3.18 3.37 2.96 2.84 2.60 2.45 2.24 2.18 2.21 1.98 1.70
1.03 1.22 1.51 1.69 1.61 1.48 1.47 1.62 1.78 1.79 1.83 1.85 1.84 2.06 2.23 2.31 2.37 2.41 2.35 2.13 2.01 2.03 2.03 2.17 1.84 1.60 1.46 1.47 1.63 1.80 2.03 2.53 2.90 2.54 2.25 2.40 2.20 2.25 2.19 2.27 2.33 2.16 1.80
1.04 1.24 1.39 1.56 1.51 1.47 1.52 1.54 1.62 1.77 1.76 1.71 1.78 2.01 2.16 2.19 2.33 2.30 2.13 1.88 1.78 1.93 1.96 2.02 1.86 1.63 1.49 1.50 1.55 1.68 2.02 2.40 2.28 2.04 2.13 2.36 1.92 1.81 2.13 2.43 2.68 2.50 2.08
0.92 1.11 1.25 1.43 1.47 1.48 1.48 1.46 1.51 1.52 1.53 1.60 1.75 1.95 1.95 1.98 2.13 2.08 1.96 1.81 1.66 1.80 1.81 1.72 1.84 1.66 1.56 1.48 1.45 1.48 1.74 1.99 1.74 1.70 1.94 2.09 1.66 1.80 2.24 2.58 2.93 2.81 2.41
0.91 1.02 1.23 1.41 1.47 1.46 1.45 1.41 1.50 1.57 1.49 1.51 1.65 1.79 1.89 1.87 1.83 1.77 1.80 1.80 1.64 1.62 1.58 1.54 1.70 1.77 1.63 1.51 1.40 1.46 1.66 1.99 1.84 1.77 1.66 1.76 1.65 1.91 2.40 2.64 2.81 2.75 2.52
1.30 1.24 1.19 1.23 1.34 1.38 1.32 1.46 1.60 1.63 1.52 1.49 1.60 1.77 1.92 1.82 1.73 1.64 1.54 1.68 1.68 1.57 1.49 1.45 1.59 1.72 1.54 1.53 1.53 1.65 1.83 1.92 1.83 1.83 1.78 1.57 1.68 2.04 2.45 2.57 2.75 2.65 2.45
1.88 1.86 1.56 1.35 1.33 1.42 1.31 1.35 1.69 1.81 1.70 1.78 1.94 2.02 2.17 2.17 1.96 1.96 1.86 1.97 1.87 1.78 1.74 1.74 1.73 1.88 1.67 1.50 1.62 1.82 1.80 1.83 2.19 2.25 1.78 1.50 1.81 2.36 2.63 2.70 2.69 2.54 2.43
2.33 2.34 1.99 1.73 1.48 1.33 1.16 1.42 1.82 1.80 1.94 2.10 2.25 2.14 2.42 2.64 2.51 2.03 2.27 2.59 2.51 2.45 2.29 2.27 2.18 1.98 1.90 1.76 2.13 2.42 1.95 2.15 2.50 2.37 1.90 1.84 2.32 2.85 3.22 3.16 2.80 2.46 2.32
2.67 2.52 2.14 1.93 1.72 1.45 1.52 1.49 1.74 2.07 2.34 2.24 2.08 2.10 2.52 2.45 2.26 2.22 2.41 2.62 2.80 2.64 2.49 2.54 2.60 2.33 2.47 2.86 3.00 2.77 2.29 2.40 2.51 2.43 2.18 2.23 2.80 3.53 3.91 3.72 3.19 2.75 2.47
2.82 2.55 2.25 2.01 1.81 1.70 1.65 1.64 1.77 1.91 2.14 2.21 2.31 2.23 2.45 2.85 2.78 2.71 2.87 2.86 2.96 3.06 3.38 3.20 3.31 3.08 2.98 2.96 3.07 2.85 2.65 2.74 2.75 3.03 3.14 2.97 3.24 3.73 4.25 4.15 3.61 3.16 2.92
2.95 2.81 2.54 2.17 2.13 2.07 2.20 2.28 1.99 2.05 2.16 2.41 2.71 2.67 2.64 2.98 2.97 3.00 3.07 3.17 2.99 3.05 3.26 3.56 3.42 3.50 3.54 3.25 2.90 2.77 2.92 2.98 3.08 3.15 3.25 3.42 3.31 3.45 4.13 4.36 4.00 3.58 3.38
3.43 3.45 3.18 2.77 2.72 2.71 2.61 2.64 2.58 2.34 2.53 2.63 2.80 2.75 2.84 3.09 3.25 3.20 3.02 3.13 3.01 2.99 3.13 3.40 3.43 3.86 3.86 3.74 3.21 2.97 3.05 3.11 3.14 3.22 3.20 3.51 3.42 3.24 3.69 4.11 4.24 4.09 3.87
3.61 3.80 3.75 3.54 3.56 3.52 3.29 3.04 2.84 2.74 2.72 3.00 3.10 3.00 3.04 3.08 3.27 3.23 3.16 3.04 3.02 3.11 3.37 3.46 3.49 3.82 3.82 3.75 3.57 3.29 3.16 2.92 2.81 2.93 2.95 3.11 3.04 3.02 3.30 3.67 4.01 4.16 4.21
3.80 4.03 4.24 4.14 4.17 4.05 3.92 3.68 3.33 3.19 3.20 3.16 3.07 3.12 3.01 3.09 3.16 3.36 3.22 2.97 3.06 3.06 3.34 3.74 3.84 4.04 4.16 4.12 3.82 3.45 3.23 3.09 2.88 2.88 2.71 2.67 2.93 2.60 2.92 3.34 3.60 3.84 4.37
4.14 4.54 4.93 4.98 4.91 4.60 4.27 4.10 3.97 3.81 3.61 3.34 3.27 3.21 3.04 2.99 2.97 3.26 3.22 3.17 3.18 3.41 3.49 3.29 3.91 4.22 4.36 4.28 3.53 3.35 2.97 2.86 2.75 2.57 2.61 2.49 2.68 2.75 2.83 2.83 2.97 3.26 4.17
4.63 5.25 5.36 5.36 5.62 5.38 5.04 4.86 4.65 4.24 3.88 3.58 3.44 3.30 3.01 2.95 2.89 3.24 3.04 3.06 3.19 3.56 3.72 3.82 4.29 4.30 4.15 4.28 3.48 3.09 2.68 2.35 2.30 2.34 2.19 2.22 2.30 2.25 2.51 2.95 3.30 3.04 3.55
4.45 5.08 5.74 5.93 5.79 5.58 5.30 4.85 4.50 4.08 3.85 3.57 3.26 3.04 2.96 2.93 3.06 3.55 3.20 3.51 3.43 3.53 3.60 3.75 4.06 4.05 3.82 4.09 4.06 3.35 2.50 1.99 1.99 1.89 1.89 2.00 1.95 1.96 2.30 2.87 3.22 3.29 3.12
3.85 4.32 4.80 5.14 4.83 4.46 4.28 4.21 4.08 3.99 3.58 3.43 3.35 3.43 3.11 3.13 3.16 3.22 3.49 3.41 3.47 3.62 3.42 3.50 3.85 3.71 3.28 3.68 4.06 4.05 3.17 2.56 2.03 1.50 1.66 1.74 1.85 2.04 2.08 2.16 2.62 3.17 3.12
3.31 3.46 3.63 3.86 3.93 3.93 3.99 4.06 4.20 4.37 4.04 3.91 3.85 3.77 3.30 3.19 3.18 3.27 3.22 3.19 3.36 3.31 3.30 3.30 3.47 3.60 3.44 3.43 3.79 4.15 3.54 2.86 2.24 1.69 1.58 1.55 1.86 2.20 2.16 2.16 2.40 2.83 3.01
2.65 2.89 3.39 3.62 3.71 3.90 4.15 4.17 4.21 4.19 4.13 4.12 4.21 4.13 3.94 3.65 3.42 3.19 3.03 3.01 3.04 2.94 3.06 2.82 3.10 3.33 3.52 3.26 3.35 3.31 3.18 3.11 2.95 2.26 1.76 1.60 1.85 2.07 2.18 2.17 2.30 2.62 2.88
2.22 2.55 3.15 3.70 3.91 4.06 4.26 4.37 4.62 4.44 4.30 4.16 4.21 4.29 4.06 3.77 3.44 3.05 3.03 3.03 3.00 2.88 2.77 2.69 2.94 2.90 3.03 3.09 3.11 3.08 3.12 3.08 2.87 2.64 2.24 2.03 1.91 1.66 1.68 1.85 2.12 2.45 2.70
2.34 2.66 3.10 3.57 3.89 4.05 4.14 4.17 4.27 4.29 4.29 4.06 3.95 3.66 3.23 3.10 3.00 2.76 2.73 2.79 2.72 2.73 2.76 2.70 2.74 2.71 2.80 2.90 2.90 2.88 3.01 2.98 2.93 2.97 2.65 2.38 2.13 1.78 1.66 1.72 1.92 2.17 2.38